Weather in Puyal

Russia / Mari El Republic     56°39′28″N   48°05′51″E
temp.,
°C
wind,
m/s
gust,
m/s
humid.,
%
clouds,
%
prec.,
mm/h
press.,
hPa
HPBL,
m
28 september, tue
tue2800:00+2ene412865 0.0 1025540
03:00+1ne411894 0.0 1026295
06:000ne49925 0.0 1028240
09:00+5ne586946 0.0 1028533
12:00+8ne575283 0.0 10291126
15:00+9ne56485 0.0 10291274
18:00+4nne366923 0.0 1030103
21:00+3nne3676100 0.0 1031105
29 september, wed
wed2900:00+2nne347985 0.0 103169
03:00+1n348538 0.0 103267
06:000nne238974 0.0 103251
09:00+5n3465100 0.0 1032351
12:00+9nne3450100 0.0 1031987
15:00+9n445493 0.0 10311158
18:00+5n227487 0.0 103130
21:00+6nnw2778100 0.0 1031210
30 september, thu
thu3000:00+5n2392100 0.0 103164
03:00+6nw239077 0.0 103180
06:00+6nw2491100 0.0 1031145
09:00+8nw357592 0.0 1031491
12:00+9nnw3473100 0.1 1030644
15:00+7w3788100 0.1 1030355
18:00+7w3792100 0.0 1029200
21:00+8w3888100 0.0 1029225
1 october, fri
fri100:00+6nw24965 0.0 102977
03:00+5nw23955 0.0 102955
06:00+4nw249518 0.0 103083
09:00+9nnw357697 0.0 1030372
12:00+13nw346276 0.0 1030825
15:00+13nnw355798 0.0 10301064
18:00+9nnw22799 0.0 103019
21:00+7nnw228850 0.0 103111
2 october, sat
sat200:00+6nnw1191100 0.0 103110
03:00+6nw119299 0.0 103210
06:00+6nw1193100 0.0 103210
09:00+10wnw127599 0.0 1032241
12:00+10wnw2276100 0.0 1032252
15:00+12w237591 0.0 1032395
18:00+8wsw229132 0.0 103313
21:00+10wsw2286100 0.0 103340